Simultaneous Nadir Overpasses (SNOs) Predictions

Prediction of SNOs between GOES-15 and LANDSAT-8 Satellite Orbit:

Table of predicted SNOs for the next 14.0 days since TLE Epoch: 9/7/2024
Index Date Time (GOES-15) GOES-15 Lat,Lon LANDSAT-8 Lat,Lon Distance(km) Time Diff (sec)
1 09/07/2024 17:56:10 0.28, 61.49 0.87, 64.20 308.37 80
2 09/08/2024 06:14:46 -0.30, 61.36 0.20, 59.04 264.83 80
3 09/10/2024 06:05:14 -0.29, 61.35 -0.43, 62.00 73.49 80
4 09/12/2024 05:53:01 -0.28, 61.35 -1.06, 64.97 411.48 80
5 09/12/2024 18:11:45 0.30, 61.46 -0.03, 59.77 191.69 80
6 09/14/2024 18:02:10 0.30, 61.47 0.54, 62.76 146.02 80
7 09/15/2024 06:20:46 -0.31, 61.35 0.48, 57.59 428.06 80
8 09/16/2024 17:49:56 0.29, 61.47 1.23, 65.72 483.75 80
9 09/17/2024 06:08:31 -0.31, 61.36 -0.16, 60.56 90.11 80
10 09/19/2024 05:58:55 -0.31, 61.36 -0.78, 63.54 247.96 80
11 09/19/2024 18:20:17 0.33, 61.47 -0.31, 58.35 354.15 80
